Precipitable_Water
0.81 0.88 0.94 0.94 0.92 0.90 0.89 0.92 0.93 0.96 0.98 1.02 1.05 1.05 1.07 1.06 1.00 0.97 0.91 1.03 1.11 1.21 1.33 1.52 1.65 1.71 1.72 1.56 1.64 1.48 0.92 0.73 0.77 0.77 0.86 0.97 0.94 1.15 1.18 1.01 0.94 0.96 0.96 1.00 1.13
0.84 0.89 0.92 0.91 0.89 0.88 0.89 0.91 0.94 0.95 0.97 1.03 1.07 1.11 1.12 1.13 0.99 0.92 1.08 1.15 1.19 1.27 1.36 1.46 1.46 1.65 1.50 1.46 1.33 1.12 0.86 0.84 0.98 0.97 0.95 0.93 0.90 1.02 1.03 0.99 0.92 0.85 1.05 1.12 1.06
0.81 0.84 0.85 0.87 0.88 0.88 0.90 0.91 0.93 0.92 0.96 1.02 1.09 1.13 1.11 1.13 0.99 0.95 1.24 1.21 1.29 1.33 1.61 1.57 1.57 1.60 1.38 1.38 1.24 1.08 0.87 1.01 1.02 1.07 1.04 0.97 0.88 1.06 0.97 0.89 0.97 0.86 0.86 1.06 0.98
0.80 0.81 0.79 0.82 0.85 0.87 0.88 0.89 0.91 0.91 0.95 0.99 1.06 1.09 1.12 1.08 0.72 1.08 1.19 1.22 1.33 1.47 1.58 1.47 1.48 1.27 1.20 1.10 1.22 0.98 1.06 1.04 1.03 1.07 1.05 0.95 0.97 0.93 0.97 0.89 1.04 1.09 1.08 0.99 0.93
0.76 0.76 0.76 0.80 0.83 0.84 0.85 0.86 0.88 0.88 0.93 0.97 1.01 1.06 1.03 0.89 0.98 1.30 1.21 1.23 1.34 1.50 1.47 1.44 1.40 1.31 1.14 1.11 1.15 1.03 1.00 1.00 1.07 1.06 1.09 1.08 0.94 0.93 0.91 1.04 1.03 1.05 1.06 1.03 1.01
0.74 0.73 0.74 0.77 0.80 0.81 0.82 0.84 0.85 0.85 0.90 0.95 0.98 1.09 0.90 0.81 1.23 1.28 1.18 1.21 1.43 1.55 1.51 1.54 1.46 1.50 1.22 1.09 1.07 1.07 1.03 1.00 1.02 1.01 1.01 0.93 0.92 1.00 1.00 1.17 1.07 1.01 0.97 0.99 1.00
0.71 0.72 0.73 0.74 0.75 0.77 0.81 0.83 0.83 0.83 0.87 0.93 0.96 1.01 0.85 0.84 1.20 1.27 1.20 1.40 1.59 1.65 1.52 1.63 1.62 1.32 1.26 1.09 1.17 1.06 0.91 0.98 0.96 0.96 0.93 0.95 0.81 0.83 1.03 1.19 1.13 1.15 1.04 1.03 0.98
0.65 0.67 0.69 0.72 0.72 0.73 0.77 0.79 0.78 0.80 0.86 0.91 0.95 0.95 0.80 1.02 1.14 1.27 1.44 1.51 1.60 1.67 1.67 1.67 1.55 1.37 1.28 1.28 1.03 0.94 0.92 0.70 0.87 0.91 0.97 0.91 0.61 0.86 1.03 1.07 1.10 1.19 1.21 1.11 1.08
0.59 0.60 0.62 0.65 0.67 0.70 0.72 0.73 0.74 0.80 0.87 0.92 0.87 0.87 0.78 1.06 0.98 1.15 1.40 1.29 1.43 1.57 1.61 1.54 1.37 1.23 1.19 0.96 0.83 0.86 0.64 0.65 0.71 0.87 0.87 0.84 0.65 0.84 1.00 1.01 1.01 1.10 1.17 1.20 1.15
0.56 0.56 0.57 0.59 0.62 0.63 0.63 0.68 0.75 0.82 0.86 0.90 0.85 0.74 0.81 0.84 0.99 1.05 1.25 1.39 1.34 1.23 1.17 1.15 1.12 0.99 0.98 0.83 0.61 0.64 0.62 0.65 0.63 0.74 0.79 0.73 0.71 0.84 0.95 0.98 0.98 1.05 1.11 1.16 1.17
0.51 0.51 0.52 0.52 0.53 0.56 0.52 0.51 0.54 0.61 0.69 0.60 0.63 0.69 0.76 0.88 0.95 0.97 1.07 1.17 1.29 1.13 0.92 1.02 0.90 0.83 0.88 0.85 0.75 0.70 0.68 0.63 0.66 0.73 0.69 0.69 0.73 0.79 0.92 0.93 0.93 1.01 1.05 1.12 1.18
0.53 0.52 0.52 0.50 0.50 0.51 0.53 0.44 0.55 0.58 0.49 0.59 0.62 0.69 0.82 0.86 0.80 0.89 1.02 0.92 1.03 0.92 0.98 0.92 0.83 1.00 0.97 0.82 0.72 0.68 0.66 0.63 0.65 0.67 0.66 0.63 0.58 0.65 0.72 0.78 0.82 0.92 1.02 1.05 1.17
0.51 0.50 0.49 0.48 0.47 0.43 0.47 0.49 0.59 0.56 0.43 0.43 0.53 0.62 0.74 0.81 0.78 0.84 0.95 0.96 0.97 0.88 0.86 0.81 0.98 1.08 0.92 0.73 0.61 0.65 0.60 0.62 0.58 0.62 0.61 0.54 0.51 0.53 0.58 0.66 0.74 0.86 1.01 1.07 1.08
0.49 0.48 0.48 0.45 0.30 0.34 0.42 0.53 0.58 0.58 0.33 0.29 0.39 0.53 0.70 0.78 0.79 0.95 0.99 0.93 0.85 0.76 0.78 0.83 0.98 0.96 0.82 0.67 0.63 0.50 0.59 0.57 0.54 0.47 0.39 0.52 0.33 0.47 0.47 0.50 0.57 0.68 0.81 0.90 1.01
0.48 0.47 0.47 0.47 0.32 0.27 0.39 0.54 0.58 0.49 0.22 0.42 0.39 0.62 0.69 0.71 0.82 0.84 0.92 0.81 0.67 0.67 0.69 0.70 0.76 0.73 0.71 0.67 0.65 0.54 0.59 0.53 0.51 0.46 0.43 0.42 0.33 0.39 0.47 0.43 0.47 0.53 0.60 0.72 0.82
0.47 0.46 0.46 0.41 0.39 0.35 0.43 0.49 0.45 0.26 0.29 0.35 0.41 0.46 0.57 0.66 0.67 0.71 0.76 0.80 0.78 0.65 0.60 0.63 0.73 0.68 0.70 0.68 0.59 0.56 0.54 0.52 0.49 0.43 0.29 0.32 0.30 0.26 0.33 0.38 0.47 0.54 0.56 0.57 0.71
0.45 0.44 0.43 0.42 0.25 0.38 0.45 0.38 0.19 0.19 0.38 0.31 0.33 0.39 0.49 0.57 0.58 0.57 0.60 0.58 0.56 0.49 0.45 0.47 0.54 0.62 0.64 0.57 0.58 0.54 0.46 0.34 0.29 0.27 0.24 0.36 0.31 0.30 0.33 0.46 0.48 0.46 0.54 0.59 0.62
0.44 0.41 0.42 0.39 0.41 0.37 0.38 0.24 0.13 0.22 0.31 0.35 0.29 0.30 0.34 0.48 0.49 0.47 0.45 0.49 0.54 0.50 0.41 0.36 0.31 0.45 0.54 0.53 0.51 0.51 0.46 0.33 0.24 0.22 0.24 0.36 0.28 0.32 0.40 0.53 0.57 0.58 0.62 0.68 0.67
0.43 0.37 0.37 0.39 0.44 0.36 0.24 0.15 0.13 0.25 0.33 0.27 0.30 0.26 0.25 0.34 0.35 0.35 0.33 0.33 0.37 0.38 0.29 0.30 0.31 0.44 0.43 0.48 0.49 0.45 0.43 0.46 0.33 0.32 0.26 0.30 0.34 0.40 0.45 0.48 0.51 0.55 0.63 0.72 0.73
0.34 0.34 0.38 0.49 0.49 0.28 0.18 0.13 0.16 0.36 0.34 0.28 0.26 0.28 0.23 0.21 0.23 0.22 0.26 0.31 0.32 0.36 0.36 0.31 0.23 0.31 0.36 0.38 0.39 0.38 0.47 0.36 0.32 0.22 0.21 0.26 0.28 0.29 0.38 0.44 0.56 0.56 0.65 0.76 0.90
0.35 0.27 0.46 0.55 0.38 0.23 0.13 0.13 0.16 0.28 0.33 0.25 0.26 0.25 0.28 0.28 0.23 0.20 0.24 0.29 0.31 0.29 0.32 0.33 0.28 0.25 0.31 0.30 0.29 0.31 0.32 0.34 0.32 0.29 0.23 0.21 0.25 0.49 0.54 0.65 0.68 0.72 0.80 0.91 0.98
0.32 0.25 0.49 0.41 0.20 0.21 0.14 0.15 0.17 0.17 0.26 0.27 0.25 0.24 0.26 0.30 0.29 0.27 0.26 0.27 0.34 0.35 0.28 0.30 0.27 0.23 0.25 0.33 0.35 0.34 0.34 0.35 0.28 0.26 0.30 0.29 0.29 0.64 0.79 0.88 0.90 0.89 0.94 1.06 1.13
0.29 0.36 0.53 0.38 0.17 0.15 0.19 0.20 0.24 0.25 0.22 0.23 0.24 0.26 0.31 0.30 0.27 0.29 0.31 0.35 0.38 0.36 0.34 0.35 0.29 0.24 0.26 0.30 0.31 0.30 0.35 0.37 0.37 0.36 0.30 0.28 0.31 0.73 0.92 0.95 1.00 0.97 1.02 1.15 1.20
0.38 0.30 0.44 0.35 0.34 0.31 0.28 0.28 0.27 0.31 0.26 0.23 0.26 0.28 0.27 0.29 0.31 0.28 0.29 0.37 0.43 0.41 0.42 0.39 0.33 0.30 0.25 0.28 0.32 0.29 0.32 0.34 0.33 0.28 0.29 0.30 0.36 0.56 0.77 0.80 0.87 0.92 0.99 1.04 1.11
0.48 0.40 0.47 0.31 0.31 0.36 0.38 0.35 0.31 0.27 0.31 0.26 0.20 0.26 0.27 0.25 0.28 0.29 0.31 0.35 0.40 0.44 0.41 0.38 0.30 0.33 0.33 0.36 0.35 0.33 0.32 0.33 0.32 0.34 0.30 0.33 0.39 0.55 0.70 0.72 0.75 0.83 0.90 0.94 0.94
0.41 0.41 0.51 0.44 0.43 0.39 0.37 0.34 0.32 0.31 0.29 0.20 0.20 0.24 0.30 0.27 0.28 0.27 0.31 0.34 0.33 0.41 0.40 0.42 0.31 0.36 0.33 0.38 0.38 0.35 0.40 0.41 0.43 0.43 0.44 0.45 0.47 0.69 0.75 0.76 0.74 0.77 0.79 0.82 0.88
0.49 0.60 0.52 0.44 0.43 0.40 0.39 0.40 0.37 0.38 0.38 0.34 0.31 0.30 0.31 0.30 0.33 0.39 0.47 0.44 0.42 0.38 0.37 0.36 0.34 0.31 0.26 0.35 0.36 0.31 0.38 0.43 0.48 0.52 0.46 0.35 0.42 0.60 0.62 0.65 0.68 0.75 0.80 0.82 0.86
Wind_Speed
5 5 6 6 6 6 5 4 4 3 3 3 3 3 5 6 7 10 11 11 9 8 7 5 5 4 3 5 5 6 7 7 8 7 6 6 7 8 8 8 6 6 6 6 12
5 6 6 7 6 5 5 4 4 4 3 3 3 3 4 5 8 11 12 12 11 9 7 5 5 4 5 6 6 7 8 7 8 8 7 6 5 6 8 7 7 7 8 11 12
6 7 7 7 6 6 5 5 4 4 4 3 3 3 4 5 8 10 13 13 12 11 7 5 6 6 9 7 6 7 7 7 7 7 9 7 7 7 8 6 5 6 8 10 11
7 8 7 7 7 6 6 5 5 5 4 4 4 4 5 7 9 10 14 14 13 11 6 6 8 7 9 8 7 6 5 5 6 8 9 10 9 7 6 7 8 8 8 9 9
7 7 7 7 7 7 7 6 6 6 5 5 4 4 5 7 10 11 16 15 14 11 8 8 8 9 8 7 5 6 4 3 4 4 5 7 7 8 7 11 12 12 11 9 8
7 7 7 8 8 8 8 7 7 7 6 5 5 4 6 8 9 14 16 17 14 12 9 10 9 9 8 6 5 2 2 1 1 2 4 7 7 7 7 9 11 12 10 10 9
7 7 8 8 8 8 9 9 8 8 7 6 6 6 7 11 11 15 17 16 14 10 10 10 9 8 7 4 3 2 2 1 2 2 3 6 5 3 5 6 7 8 8 8 7
8 8 9 9 9 10 10 10 10 9 9 8 7 7 10 11 13 16 17 14 12 11 12 9 9 7 6 3 2 2 4 4 2 4 3 5 1 3 5 4 3 3 4 4 5
8 9 10 10 10 10 11 11 10 9 9 9 8 9 11 12 15 17 17 14 11 12 12 11 8 8 5 3 5 4 3 2 3 1 2 3 1 3 3 2 2 3 3 3 3
10 10 11 11 11 11 10 10 9 9 10 10 10 9 12 13 15 16 18 15 11 12 12 12 10 8 5 5 4 2 2 2 4 2 1 3 6 2 2 3 4 5 6 6 6
10 10 10 10 10 10 9 9 9 9 11 13 10 13 12 13 14 15 16 16 14 13 12 11 9 8 7 5 5 4 3 4 5 2 3 3 4 5 4 6 7 7 8 9 10
10 10 10 10 9 8 7 7 7 9 10 15 16 15 16 15 14 14 17 16 18 16 13 10 9 10 6 5 4 4 3 4 4 3 2 0 3 6 5 8 9 7 9 11 11
10 10 9 8 7 5 6 8 7 8 10 12 16 17 18 17 17 16 18 18 16 16 15 13 10 9 7 4 3 3 2 5 5 5 4 5 8 8 5 6 6 8 9 11 12
11 10 9 8 5 5 6 6 7 8 6 11 14 16 18 17 15 19 20 18 16 16 16 13 11 11 8 5 3 4 4 6 7 5 5 6 7 8 8 8 6 7 9 12 14
12 11 9 7 7 6 7 4 5 6 6 9 14 14 18 19 14 18 20 17 18 17 15 15 12 10 9 8 5 9 7 7 7 7 8 10 7 11 10 9 10 11 12 14 15
14 13 11 8 9 9 8 6 6 5 8 7 12 15 18 18 16 16 19 17 16 17 16 19 15 13 13 11 10 10 8 7 6 7 8 9 6 9 8 10 15 14 15 15 15
16 15 13 12 10 9 8 7 5 8 5 6 11 13 17 18 17 15 20 19 17 14 15 16 18 16 15 13 11 8 7 9 9 8 9 8 8 10 10 13 15 18 21 18 15
18 17 15 15 13 12 12 8 9 9 9 7 8 11 17 18 18 16 16 19 17 15 13 14 15 16 15 17 14 11 9 8 10 10 13 10 10 11 11 15 16 17 17 14 14
19 16 16 15 18 15 14 11 13 12 9 7 9 10 12 17 16 17 17 18 19 19 17 14 16 16 18 15 13 12 12 11 8 11 10 12 15 16 14 15 18 18 16 15 15
18 18 17 17 18 18 15 16 15 14 11 9 10 11 14 13 17 16 18 14 19 21 16 17 13 14 14 13 14 14 13 11 11 12 13 13 14 14 16 18 18 18 18 17 14
14 16 18 18 19 18 19 19 18 18 15 12 13 12 13 14 16 16 16 17 13 11 17 18 14 16 12 13 14 12 14 12 12 11 12 13 14 14 17 17 18 17 15 13 11
12 13 15 19 19 20 20 21 21 21 19 18 17 18 17 15 16 16 17 18 14 15 13 16 13 17 20 18 16 16 16 13 12 14 13 12 17 14 15 16 15 15 13 11 9
12 13 14 15 17 20 21 21 22 23 23 21 20 21 19 18 16 17 17 15 14 15 15 15 14 13 14 13 14 14 14 12 13 13 15 13 17 15 14 13 14 13 13 11 10
11 12 13 15 15 15 18 21 21 22 25 26 25 22 21 20 20 19 18 17 14 14 13 13 14 14 15 15 14 15 16 15 15 14 16 18 16 17 15 15 16 15 15 15 14
11 12 13 13 16 16 16 17 21 22 24 25 25 27 25 25 22 22 20 18 16 16 15 16 17 17 18 18 17 17 19 18 19 18 16 18 17 18 17 17 18 18 17 17 16
11 11 13 14 14 15 15 15 17 20 23 25 27 27 27 29 27 25 22 22 21 19 17 18 19 18 20 19 19 21 21 19 19 18 17 16 18 19 19 18 18 18 18 19 19
12 13 13 14 15 14 15 14 14 14 19 25 25 24 25 27 28 27 24 22 22 20 19 19 19 19 24 21 22 23 22 22 21 21 21 21 22 19 18 17 18 19 18 19 20
Wind_Direction
273 270 278 289 295 295 295 297 298 299 294 279 264 240 219 215 212 194 192 184 173 168 160 152 154 161 128 111 102 103 86 75 73 68 41 82 69 74 53 70 63 78 72 102 135
276 274 279 286 289 286 285 285 291 292 288 276 259 238 221 217 203 198 190 182 178 170 162 150 141 135 138 127 108 101 98 85 75 71 59 71 82 88 61 62 54 65 72 115 131
279 279 279 281 281 281 275 276 282 283 280 270 250 233 223 214 193 188 183 180 177 170 165 160 153 132 135 135 118 116 107 91 68 62 51 79 95 86 74 58 52 80 103 124 133
282 281 277 275 276 274 269 269 274 273 271 263 246 237 232 196 187 184 179 175 170 166 161 150 148 143 138 135 120 116 107 92 76 82 62 70 90 82 81 50 56 87 109 123 141
283 282 275 274 274 271 266 266 267 266 263 257 245 236 202 191 194 181 173 172 168 165 154 141 140 145 143 136 125 128 96 84 66 59 66 79 90 89 82 61 72 85 95 109 129
288 282 277 275 274 269 265 263 263 259 255 250 236 221 194 187 177 173 171 170 170 169 169 154 146 148 141 139 132 139 171 155 56 72 74 76 80 101 76 80 81 87 92 100 110
289 283 281 279 275 270 264 263 261 254 248 239 222 206 192 191 173 169 168 170 171 174 170 167 160 152 154 157 157 130 82 86 114 120 109 97 65 109 102 95 94 91 92 100 112
291 286 284 282 279 272 265 262 258 249 239 226 211 201 194 181 175 173 173 176 182 185 178 173 163 161 162 177 158 149 107 63 62 101 132 115 360 65 123 118 136 124 107 114 125
292 289 286 284 281 274 267 262 253 235 221 211 205 196 197 185 180 183 182 180 186 181 179 178 172 162 155 143 127 99 108 29 6 73 113 159 320 36 142 163 190 215 206 188 169
295 291 288 284 281 275 267 253 231 223 217 213 208 197 195 184 182 185 190 189 178 173 172 174 170 166 157 134 165 262 324 316 303 318 202 203 267 348 258 238 259 249 236 225 221
300 295 291 287 282 272 255 232 232 226 218 207 196 196 188 190 188 188 186 187 190 185 181 176 171 184 197 187 221 239 248 276 319 317 162 224 289 283 273 271 272 271 242 236 234
305 300 296 292 284 263 231 218 213 220 231 220 215 209 203 195 195 193 187 186 183 189 183 182 197 189 193 226 243 222 243 278 314 11 97 78 296 314 298 287 257 260 244 241 247
305 302 298 294 278 224 224 213 224 225 219 224 209 203 199 193 200 201 188 186 189 192 190 190 198 198 221 245 260 214 243 285 269 321 348 335 325 336 335 318 294 275 263 252 250
300 298 295 293 235 233 215 219 242 209 209 216 205 204 195 192 203 199 193 191 197 197 192 201 206 202 215 241 223 254 266 283 289 314 305 327 307 320 324 319 314 307 274 260 259
293 290 283 265 246 217 205 236 201 197 196 198 193 194 193 192 195 199 197 197 199 202 196 207 201 222 233 233 248 255 289 290 285 293 307 307 310 291 308 314 315 308 292 278 268
286 281 272 242 232 224 223 226 194 181 212 194 187 192 190 200 200 198 198 200 205 209 219 222 229 235 233 250 252 273 274 295 288 291 302 297 308 298 303 313 308 309 305 296 275
280 272 256 239 225 218 218 201 193 191 207 189 195 194 199 198 199 201 202 202 207 211 226 237 234 239 238 250 255 263 280 286 293 300 271 285 306 279 303 308 308 308 303 296 281
276 265 244 235 228 222 210 206 207 215 211 210 198 197 199 198 207 206 206 212 217 217 223 225 245 234 238 238 240 250 249 252 265 275 281 276 277 286 293 310 315 316 316 305 293
268 250 241 234 225 220 210 213 216 213 218 227 212 198 205 205 206 209 212 216 220 219 222 229 246 248 241 238 241 248 253 256 269 290 290 280 285 290 297 310 321 321 323 317 310
256 245 237 233 219 217 218 223 224 219 227 224 213 212 207 207 207 211 213 218 225 223 225 230 247 240 246 241 247 248 244 260 281 277 280 287 290 282 303 308 314 315 319 321 319
251 238 240 225 220 222 224 227 230 229 227 226 222 227 219 215 208 213 221 226 223 230 227 227 234 245 244 241 235 251 256 266 262 267 271 286 286 284 296 302 305 310 314 316 319
248 236 231 222 227 230 229 228 231 234 234 237 229 228 227 224 221 223 223 227 232 226 223 230 233 244 245 247 250 250 251 249 257 266 274 278 285 294 299 303 308 313 317 315 312
244 237 226 228 230 234 236 235 236 238 236 234 234 228 226 227 229 226 227 229 237 229 229 230 244 252 264 254 248 244 244 252 260 269 264 271 281 286 296 301 308 313 316 313 308
242 236 236 230 235 232 238 241 241 237 239 236 235 233 235 234 230 229 228 231 240 236 238 234 242 240 240 245 243 244 246 252 256 263 266 269 274 276 281 288 298 303 304 302 300
244 240 235 237 238 241 242 244 244 242 237 235 234 234 232 234 232 234 234 238 241 246 244 245 247 248 254 253 254 252 252 251 253 259 261 273 265 270 274 283 289 291 294 295 297
249 246 246 242 244 241 241 243 246 246 239 237 234 237 234 235 232 232 233 238 240 248 248 253 253 256 259 261 256 259 259 254 257 261 268 265 274 272 275 278 285 288 291 292 293
255 250 243 244 246 242 242 244 248 257 243 236 237 239 237 239 234 238 237 238 241 242 251 255 253 257 261 264 267 263 257 256 260 265 267 267 270 266 269 273 281 288 290 291 293